Aeroporto :
LOGIN :

Iscrizione | Disclaimer

   EN    FR    IT 

 










Sommario :    VFR   VFR Marginale   IFR   IFR Intensivo   IFR Molto Intensivo
Visibilità : 
Base nubi : 
>= 8 km
>= 3000ft
5 / 8 km
1000 / 3000 ft
1500m / 5 km
500 / 1000 ft
800 / 1500m
200 / 500 ft
< 800m
< 200 ft
Simboli :   Temporali  Nebbia  Neve Forte  Precipitazioni Forti  Vento > 20 kt
SIGMETs :   Varie  Temporali  Ghiacco  Turbolenza  Onda orograficha  Ceneri Vulcaniche







- Altitudine del aeroporto : 821 ft
- Codice IATA : LYS
- Carte del aeroporto


LFLL - Lyon St Exupéry / Satolas

ULTIMO METAR :
  • 171400Z 18014KT CAVOK 17/M01 Q1024 NOSIG

METARs OBSOLETI :
  • 171330Z 18015KT CAVOK 17/M02 Q1024 NOSIG
  • 171300Z 18018KT CAVOK 16/M02 Q1024 NOSIG
  • 171230Z 18015KT CAVOK 16/M02 Q1025 NOSIG
  • 171200Z 18014KT CAVOK 16/M01 Q1025 NOSIG
  • 171130Z 17014KT CAVOK 16/M01 Q1026 NOSIG

TAF TAF LFLL
Valido dal 17 a 12 ore il 18 a 18 ore UTC


171100Z 1712/1818 17012KT CAVOK
PROB30
TEMPO 1722/1803 BKN020
Nessun NOTAM noto per questo aeroporto.



MetMap, La meteo Aeronautica in un colpo d'occhio ! - Copyright ORBIFLY Dicembre 2007 - Disclaimer

ORBIFLY MET'MAP TEAM :

Programmazione e sviluppo : Alexandra Zaïnal
Concezione e sviluppo : Baudouin d'Aumeries
Co-Programmazione e sviluppo : Marc-Olivier Méhu
Supporto tecnico e logistico : Manuel Goepfert
Aiuto per la traduzione : Arnaldo La Scala

Contatto : metmap@orbifly.com




FONTI E CREDITI :

   NOAA